• In Hungary
  • List of Countries
  • For 7 days
  • Water Temperature
  • Satellite Maps
  • Weather Map
  • News
  • Weather Widgets
  • user-avatar
    Login

    Hourly Weather Ilincy

    Today, 24 September, Monday

    Time Temperature Precipitation Wind Pressure Humidity
    00:00 +12°C° 0 mm 5 mps 740 mmHg 57%
    01:00 +11°C° 0 mm 6 mps 739 mmHg 56%
    02:00 +12°C° 0 mm 5 mps 737 mmHg 59%
    03:00 +11°C° 0 mm 6 mps 736 mmHg 62%
    04:00 +12°C° 0 mm 8 mps 736 mmHg 64%
    05:00 +12°C° 0 mm 9 mps 735 mmHg 67%
    06:00 +13°C° 0 mm 9 mps 735 mmHg 70%
    07:00 +15°C° 0 mm 9 mps 735 mmHg 73%
    08:00 +15°C° 0 mm 9 mps 734 mmHg 77%
    09:00 +16°C° 0.6 mm 8 mps 734 mmHg 80%
    10:00 +16°C° 0.6 mm 8 mps 734 mmHg 82%
    11:00 +16°C° 0.6 mm 7 mps 734 mmHg 85%
    12:00 +15°C° 0.3 mm 7 mps 734 mmHg 82%
    13:00 +13°C° 0.3 mm 8 mps 735 mmHg 79%
    14:00 +11°C° 0.3 mm 8 mps 736 mmHg 76%
    15:00 +11°C° 0.1 mm 8 mps 736 mmHg 74%
    16:00 +10°C° 0.1 mm 7 mps 737 mmHg 72%
    17:00 +10°C° 0.1 mm 7 mps 737 mmHg 70%
    18:00 +9°C° 0 mm 7 mps 738 mmHg 71%
    19:00 +9°C° 0 mm 7 mps 738 mmHg 71%
    20:00 +8°C° 0 mm 6 mps 738 mmHg 72%
    21:00 +8°C° 0 mm 6 mps 739 mmHg 72%
    22:00 +7°C° 0 mm 6 mps 739 mmHg 73%
    23:00 +6°C° 0 mm 5 mps 739 mmHg 74%

    Tomorrow, 25 September, Tuesday

    Time Temperature Precipitation Wind Pressure Humidity
    00:00 +6°C° 0 mm 5 mps 740 mmHg 74%
    01:00 +6°C° 0 mm 5 mps 740 mmHg 75%
    02:00 +5°C° 0 mm 6 mps 740 mmHg 76%
    03:00 +5°C° 0 mm 6 mps 740 mmHg 77%
    04:00 +5°C° 0 mm 6 mps 740 mmHg 78%
    05:00 +5°C° 0 mm 6 mps 740 mmHg 79%
    06:00 +5°C° 0 mm 7 mps 741 mmHg 76%
    07:00 +6°C° 0 mm 7 mps 741 mmHg 73%
    08:00 +6°C° 0 mm 8 mps 742 mmHg 70%
    09:00 +6°C° 0.4 mm 8 mps 742 mmHg 70%
    10:00 +6°C° 0.4 mm 8 mps 743 mmHg 70%
    11:00 +7°C° 0.4 mm 9 mps 743 mmHg 70%
    12:00 +7°C° 0.2 mm 8 mps 744 mmHg 67%
    13:00 +9°C° 0.2 mm 8 mps 744 mmHg 64%
    14:00 +9°C° 0.2 mm 8 mps 745 mmHg 61%
    15:00 +9°C° 0 mm 7 mps 745 mmHg 61%
    16:00 +9°C° 0 mm 6 mps 745 mmHg 60%
    17:00 +9°C° 0 mm 5 mps 746 mmHg 60%
    18:00 +8°C° 0 mm 5 mps 746 mmHg 63%
    19:00 +7°C° 0 mm 5 mps 747 mmHg 67%
    20:00 +6°C° 0 mm 5 mps 748 mmHg 70%
    21:00 +5°C° 0 mm 5 mps 748 mmHg 71%
    22:00 +5°C° 0 mm 5 mps 749 mmHg 73%
    23:00 +5°C° 0 mm 5 mps 749 mmHg 74%

    Day after tomorrow, 26 September, Wednesday

    Time Temperature Precipitation Wind Pressure Humidity
    00:00 +5°C° 0 mm 5 mps 749 mmHg 76%
    01:00 +3°C° 0 mm 5 mps 750 mmHg 77%
    02:00 +3°C° 0 mm 5 mps 750 mmHg 79%
    03:00 +2°C° 0 mm 5 mps 750 mmHg 80%
    04:00 +2°C° 0 mm 5 mps 751 mmHg 81%
    05:00 +2°C° 0 mm 5 mps 751 mmHg 81%
    06:00 +2°C° 0 mm 5 mps 752 mmHg 76%
    07:00 +3°C° 0 mm 5 mps 752 mmHg 72%
    08:00 +4°C° 0 mm 6 mps 753 mmHg 67%
    09:00 +5°C° 0 mm 6 mps 753 mmHg 59%
    10:00 +7°C° 0 mm 6 mps 753 mmHg 52%
    11:00 +9°C° 0 mm 6 mps 753 mmHg 44%
    12:00 +9°C° 0 mm 6 mps 753 mmHg 44%
    13:00 +9°C° 0 mm 5 mps 753 mmHg 44%
    14:00 +10°C° 0 mm 5 mps 753 mmHg 44%
    15:00 +11°C° 0 mm 4 mps 753 mmHg 47%
    16:00 +10°C° 0 mm 3 mps 753 mmHg 50%
    17:00 +10°C° 0 mm 3 mps 753 mmHg 54%
    18:00 +9°C° 0 mm 2 mps 753 mmHg 58%
    19:00 +8°C° 0 mm 2 mps 753 mmHg 62%
    20:00 +6°C° 0 mm 2 mps 753 mmHg 66%
    21:00 +6°C° 0 mm 2 mps 753 mmHg 67%
    22:00 +6°C° 0 mm 2 mps 752 mmHg 68%
    23:00 +4°C° 0 mm 3 mps 752 mmHg 69%

    27 September, Thursday

    Time Temperature Precipitation Wind Pressure Humidity
    00:00 +4°C° 0 mm 3 mps 752 mmHg 70%
    01:00 +4°C° 0 mm 3 mps 751 mmHg 70%
    02:00 +4°C° 0 mm 3 mps 751 mmHg 70%
    03:00 +4°C° 0 mm 4 mps 751 mmHg 69%
    04:00 +4°C° 0 mm 4 mps 750 mmHg 68%
    05:00 +5°C° 0 mm 4 mps 750 mmHg 68%
    06:00 +6°C° 0 mm 5 mps 749 mmHg 64%
    07:00 +7°C° 0 mm 6 mps 749 mmHg 60%
    08:00 +8°C° 0 mm 6 mps 749 mmHg 57%
    09:00 +9°C° 0 mm 7 mps 749 mmHg 53%
    10:00 +10°C° 0 mm 7 mps 748 mmHg 50%
    11:00 +12°C° 0 mm 7 mps 748 mmHg 46%
    12:00 +14°C° 0 mm 7 mps 747 mmHg 46%
    13:00 +15°C° 0 mm 7 mps 747 mmHg 46%
    14:00 +15°C° 0 mm 7 mps 747 mmHg 46%
    15:00 +15°C° 0 mm 6 mps 746 mmHg 51%
    16:00 +15°C° 0 mm 5 mps 746 mmHg 55%
    17:00 +15°C° 0 mm 4 mps 746 mmHg 59%
    18:00 +14°C° 0 mm 4 mps 746 mmHg 65%
    19:00 +13°C° 0 mm 4 mps 746 mmHg 70%
    20:00 +12°C° 0 mm 4 mps 746 mmHg 76%
    21:00 +11°C° 0 mm 4 mps 746 mmHg 78%
    22:00 +11°C° 0 mm 4 mps 746 mmHg 80%
    23:00 +11°C° 0 mm 4 mps 746 mmHg 83%

    28 September, Friday

    Time Temperature Precipitation Wind Pressure Humidity
    00:00 +10°C° 0 mm 4 mps 746 mmHg 85%
    01:00 +10°C° 0 mm 4 mps 745 mmHg 87%
    02:00 +10°C° 0 mm 3 mps 745 mmHg 90%
    03:00 +9°C° 0 mm 3 mps 745 mmHg 91%
    04:00 +9°C° 0 mm 3 mps 745 mmHg 92%
    05:00 +9°C° 0 mm 3 mps 745 mmHg 93%
    06:00 +10°C° 0 mm 3 mps 744 mmHg 89%
    07:00 +11°C° 0 mm 3 mps 744 mmHg 84%
    08:00 +13°C° 0 mm 3 mps 744 mmHg 80%
    09:00 +14°C° 0 mm 4 mps 744 mmHg 73%
    10:00 +17°C° 0 mm 4 mps 744 mmHg 66%
    11:00 +19°C° 0 mm 4 mps 744 mmHg 59%
    12:00 +20°C° 0 mm 4 mps 744 mmHg 56%
    13:00 +21°C° 0 mm 4 mps 743 mmHg 54%
    14:00 +21°C° 0 mm 4 mps 743 mmHg 51%
    15:00 +21°C° 0 mm 3 mps 743 mmHg 55%
    16:00 +20°C° 0 mm 3 mps 742 mmHg 59%
    17:00 +20°C° 0 mm 2 mps 742 mmHg 62%
    18:00 +18°C° 0 mm 2 mps 742 mmHg 67%
    19:00 +17°C° 0 mm 2 mps 742 mmHg 72%
    20:00 +16°C° 0 mm 2 mps 742 mmHg 77%
    21:00 +15°C° 0 mm 2 mps 742 mmHg 80%
    22:00 +15°C° 0 mm 2 mps 742 mmHg 82%
    23:00 +15°C° 0 mm 2 mps 741 mmHg 85%

    29 September, Saturday

    Time Temperature Precipitation Wind Pressure Humidity
    00:00 +14°C° 0 mm 2 mps 741 mmHg 86%
    01:00 +14°C° 0 mm 1 mps 741 mmHg 88%
    02:00 +14°C° 0 mm 1 mps 741 mmHg 89%
    03:00 +14°C° 0 mm 1 mps 741 mmHg 90%
    04:00 +13°C° 0 mm 1 mps 741 mmHg 90%
    05:00 +13°C° 0 mm 1 mps 741 mmHg 91%
    06:00 +14°C° 0 mm 1 mps 741 mmHg 89%
    07:00 +14°C° 0 mm 1 mps 741 mmHg 87%
    08:00 +15°C° 0 mm 1 mps 741 mmHg 84%
    09:00 +15°C° 0.4 mm 1 mps 741 mmHg 85%
    10:00 +15°C° 0.4 mm 2 mps 741 mmHg 85%
    11:00 +13°C° 0.4 mm 3 mps 742 mmHg 85%
    12:00 +12°C° 1 mm 4 mps 742 mmHg 85%
    13:00 +10°C° 1 mm 5 mps 742 mmHg 84%
    14:00 +9°C° 1 mm 6 mps 742 mmHg 83%
    15:00 +8°C° 0.9 mm 6 mps 743 mmHg 83%
    16:00 +7°C° 0.9 mm 6 mps 743 mmHg 83%
    17:00 +7°C° 0.9 mm 6 mps 744 mmHg 83%
    18:00 +7°C° 0.2 mm 5 mps 744 mmHg 83%
    19:00 +6°C° 0.2 mm 5 mps 745 mmHg 83%
    20:00 +6°C° 0.2 mm 4 mps 746 mmHg 83%
    21:00 +6°C° 0 mm 4 mps 746 mmHg 83%
    22:00 +5°C° 0 mm 4 mps 746 mmHg 84%
    23:00 +5°C° 0 mm 4 mps 746 mmHg 84%
    Show more